Vorticity
2 5 2 4 4 6 2 2 3 5 12 10 12 22 21 10 5 14 17 25 -11 16 7 -4 22 28 1 6 3 4 5 6
7 5 5 2 3 7 12 3 -1 6 11 10 12 22 19 8 10 15 1 25 -8 18 6 2 14 6 3 8 3 8 5 6
2 6 2 2 7 9 10 6 2 4 11 9 11 23 14 6 10 3 -9 50 24 8 13 24 16 7 5 4 10 8 2 4
9 1 7 3 3 16 10 6 -1 4 10 9 14 23 13 4 6 3 -0 17 52 14 11 18 5 1 7 3 4 7 4 1
14 10 16 10 4 12 3 7 5 6 9 10 15 19 14 13 9 6 12 -1 28 39 16 14 9 4 7 4 5 2 -5 -1
21 21 7 4 19 11 7 2 3 7 9 9 13 20 15 9 6 8 2 4 -7 23 19 10 18 10 3 2 3 -4 10 24
26 7 -5 1 7 14 2 4 -2 7 9 8 12 18 15 12 9 10 9 -2 9 -3 1 14 13 21 11 6 1 5 6 2
24 12 10 12 12 8 5 7 2 7 8 7 9 14 16 11 9 8 7 11 22 4 13 2 4 19 14 10 -7 12 13 13
-4 9 5 11 8 11 1 5 4 9 8 7 8 10 16 13 11 10 10 19 22 26 28 18 8 35 16 -3 15 6 0 9
10 -7 6 19 18 8 1 4 3 9 7 6 6 8 10 12 11 10 12 24 17 21 10 -14 10 -2 19 8 25 9 2 -1
16 6 7 8 14 10 3 6 4 6 7 6 6 6 7 9 11 9 15 15 18 29 13 21 -4 3 -13 11 -9 -1 15 1
15 15 5 12 19 9 5 3 1 12 7 6 6 6 5 6 7 8 10 15 22 3 15 12 11 38 -3 14 14 20 9 16
22 -2 -1 33 32 2 5 3 6 10 8 5 6 6 7 7 6 5 6 8 13 18 9 7 21 19 18 9 6 11 14 10
33 -1 16 50 12 5 1 -4 3 4 7 11 10 8 6 5 5 5 6 6 6 7 8 10 5 8 18 18 23 24 13 3
29 22 29 31 14 12 2 2 6 2 8 7 8 9 8 7 7 6 5 5 6 7 6 6 6 7 6 5 6 9 12 14
24 19 20 19 17 11 3 3 2 3 12 10 7 7 8 10 11 11 10 9 8 7 5 5 6 6 7 7 6 5 6 6
15 23 35 33 24 13 17 7 0 -1 -0 -2 4 10 10 8 5 0 1 2 0 3 5 7 6 2 -1 -2 4 5 6 6
11 17 12 14 22 19 19 15 9 13 -5 3 14 8 4 3 5 7 7 6 5 4 7 12 10 5 1 3 7 6 3 2
1 2 10 13 5 9 14 15 26 23 17 9 9 8 8 8 8 8 9 8 8 8 8 7 7 7 8 10 10 9 9 13
Height
3060 3063 3064 3066 3067 3069 3072 3073 3072 3071 3068 3066 3065 3062 3063 3065 3068 3070 3073 3071 3072 3080 3087 3091 3094 3100 3107 3113 3119 3125 3129 3134
3052 3056 3057 3060 3062 3064 3067 3069 3068 3067 3064 3063 3060 3059 3060 3063 3066 3068 3069 3069 3069 3075 3082 3087 3091 3097 3104 3112 3117 3121 3125 3129
3046 3049 3052 3054 3057 3059 3062 3065 3065 3064 3061 3059 3057 3056 3058 3060 3063 3064 3065 3061 3063 3072 3077 3083 3088 3094 3101 3107 3113 3117 3121 3126
3039 3043 3047 3049 3052 3055 3058 3061 3061 3060 3058 3056 3054 3054 3054 3057 3059 3061 3062 3060 3060 3067 3073 3078 3085 3092 3098 3103 3109 3113 3118 3122
3032 3036 3040 3044 3048 3050 3054 3057 3058 3057 3055 3054 3052 3051 3053 3055 3058 3060 3060 3062 3062 3067 3072 3078 3083 3089 3093 3098 3105 3110 3115 3118
3025 3030 3035 3039 3042 3047 3050 3053 3054 3054 3053 3052 3050 3049 3051 3052 3056 3058 3060 3062 3063 3067 3071 3076 3081 3086 3090 3096 3100 3104 3108 3112
3019 3025 3029 3033 3038 3042 3045 3049 3050 3050 3050 3049 3048 3047 3048 3051 3053 3055 3058 3060 3062 3065 3069 3073 3076 3082 3087 3090 3095 3099 3103 3106
3014 3020 3024 3028 3033 3038 3041 3045 3047 3047 3047 3046 3046 3045 3046 3048 3051 3052 3054 3056 3058 3060 3065 3069 3074 3076 3080 3085 3089 3093 3096 3100
3011 3016 3020 3024 3028 3032 3036 3041 3044 3044 3044 3044 3044 3044 3045 3045 3047 3049 3049 3050 3053 3055 3060 3066 3070 3072 3076 3080 3083 3087 3091 3095
3007 3011 3015 3017 3021 3026 3031 3036 3040 3041 3041 3042 3042 3043 3043 3044 3044 3045 3045 3045 3047 3051 3057 3062 3066 3069 3073 3077 3080 3082 3084 3087
3002 3006 3009 3012 3016 3021 3027 3032 3036 3037 3038 3040 3041 3042 3042 3043 3043 3044 3044 3044 3045 3049 3054 3060 3063 3066 3069 3072 3074 3077 3079 3081
2995 2999 3002 3006 3011 3016 3022 3027 3031 3033 3035 3037 3039 3040 3041 3042 3042 3043 3044 3045 3047 3048 3051 3056 3059 3062 3065 3068 3069 3072 3074 3077
2987 2992 2996 3000 3005 3011 3017 3022 3025 3027 3031 3033 3036 3038 3039 3041 3042 3042 3043 3045 3047 3049 3051 3053 3055 3058 3060 3062 3064 3066 3068 3069
2981 2986 2989 2993 2997 3004 3009 3014 3018 3023 3028 3030 3032 3034 3035 3037 3038 3040 3042 3044 3046 3048 3050 3052 3054 3056 3057 3058 3059 3061 3063 3065
2977 2981 2985 2989 2994 3000 3006 3011 3017 3022 3025 3027 3029 3031 3032 3034 3036 3037 3039 3041 3042 3045 3047 3048 3050 3051 3052 3053 3055 3056 3057 3059
2978 2979 2983 2988 2993 2998 3002 3007 3014 3018 3021 3024 3026 3028 3029 3031 3032 3034 3036 3037 3039 3040 3041 3043 3044 3045 3046 3047 3048 3049 3050 3051
2979 2980 2983 2987 2991 2996 3000 3006 3010 3013 3017 3020 3021 3024 3025 3027 3029 3031 3032 3033 3035 3036 3037 3037 3038 3036 3038 3039 3039 3041 3042 3044
2979 2982 2984 2986 2989 2993 2998 3000 3003 3008 3011 3016 3019 3019 3020 3022 3024 3026 3027 3028 3029 3030 3031 3032 3032 3031 3032 3032 3033 3033 3033 3033
2981 2981 2984 2986 2988 2990 2993 2996 2999 3001 3007 3012 3012 3014 3015 3017 3018 3019 3021 3022 3023 3023 3024 3024 3023 3024 3025 3026 3026 3026 3026 3026